"Timestamp","TZ","WindDir_Mean (deg)","WindSpd_Mean (km/h)","WindSpd_Min (km/h)","WindSpd_Max (km/h)","Temp_Mean (deg)","RH_Mean (%)","MSLP_Mean (hPa)","Rain_Acc (mm)","Rain_Intensity (mm/h)","Hail_Acc (hits/cm2)","Hail_Intensity (hits/cm2hr)","Solar_Mean (W/m2)"
2021/05/12 00:00:00.008,n,260,5.76,4.32,7.56,21.5,80.5,1018.02,0,0,0,0,0.01915
2021/05/12 00:01:00.000,n,256,7.56,7.2,7.92,21.5,80,1017.92,0,0,0,0,0.013885
2021/05/12 00:02:00.002,n,267,6.48,5.76,7.2,21.4,79.6,1017.82,0,0,0,0,0.012169
2021/05/12 00:03:00.000,n,257,7.2,6.84,7.56,21.3,79.6,1017.72,0,0,0,0,0.018272
2021/05/12 00:04:00.000,n,265,5.04,5.04,5.4,21.3,79.8,1017.72,0,0,0,0,0.011292
2021/05/12 00:05:00.000,n,187,2.52,2.16,3.24,21.3,80,1017.72,0,0,0,0,0.009575
2021/05/12 00:06:00.006,n,155,4.32,4.32,4.68,21.2,80.1,1017.72,0,0,0,0,0.015678
2021/05/12 00:07:00.004,n,139,0.72,0.36,1.44,21.2,80.3,1017.82,0,0,0,0,0.021744
2021/05/12 00:08:00.009,n,316,3.6,2.88,4.32,21.2,80.5,1017.92,0,0,0,0,0.028687
2021/05/12 00:09:00.016,n,286,3.6,3.24,3.6,21.3,81.5,1017.92,0.01,0.5,0,0,0.033035
2021/05/12 00:10:00.000,n,283,3.6,3.24,4.32,21.4,81.2,1017.92,0.01,0,0,0,0.032196
2021/05/12 00:11:00.000,n,266,4.32,3.96,4.68,21.4,80.4,1017.92,0.01,0,0,0,0.035667
2021/05/12 00:12:00.002,n,241,1.44,1.08,1.8,21.3,80.6,1017.92,0.01,0,0,0,0.028687
2021/05/12 00:13:00.007,n,16,0.72,0.36,1.44,21.3,80.6,1017.92,0.01,0,0,0,0.031319
2021/05/12 00:14:00.000,n,243,3.6,3.24,3.96,21.3,80.6,1017.92,0.01,0,0,0,0.026093
2021/05/12 00:15:00.001,n,267,3.96,2.16,5.4,21.3,80.3,1017.92,0.01,0,0,0,0.032196
2021/05/12 00:16:00.007,n,269,5.76,5.04,6.84,21.3,80.8,1018.02,0.01,0,0,0,0.029602
2021/05/12 00:17:00.013,n,268,6.48,6.12,7.2,21.3,80.4,1018.02,0.01,0,0,0,0.026093
2021/05/12 00:18:00.002,n,273,8.64,8.28,9.36,21.2,80.3,1018.02,0.01,0,0,0,0.029602
2021/05/12 00:19:00.000,n,263,9.72,9,9.72,21.2,80.3,1017.92,0.01,0,0,0,0.029602
2021/05/12 00:20:00.000,n,272,6.48,5.4,7.56,21.2,80.3,1017.92,0.01,0,0,0,0.032196
2021/05/12 00:21:00.000,n,275,7.92,5.76,9.36,21.1,80.4,1017.92,0.01,0,0,0,0.030441
2021/05/12 00:22:00.000,n,258,6.84,5.76,7.56,21.1,80.4,1017.92,0.01,0,0,0,0.025253
2021/05/12 00:23:00.007,n,268,7.92,7.56,8.28,21.1,80.6,1017.92,0.01,0,0,0,0.028687
2021/05/12 00:24:00.004,n,275,6.12,5.4,7.2,21.1,80.7,1017.92,0.01,0,0,0,0.016518
2021/05/12 00:25:00.002,n,280,5.76,5.04,6.84,21.1,81.2,1017.82,0.01,0,0,0,0.022621
2021/05/12 00:26:00.000,n,263,5.04,4.68,5.76,21.1,81.7,1017.82,0.01,0,0,0,0.027847
2021/05/12 00:27:00.013,n,276,6.48,5.4,8.28,21.2,81.7,1017.72,0.01,0,0,0,0.02346
2021/05/12 00:28:00.000,n,261,5.04,3.24,6.12,21.2,81,1017.72,0.01,0,0,0,0.025253
2021/05/12 00:29:00.000,n,262,5.4,3.6,6.48,21.2,81.6,1017.62,0.01,0,0,0,0.02346
2021/05/12 00:30:00.004,n,267,3.6,3.24,3.6,21.2,81.3,1017.62,0.02,0.4,0,0,0.026093
2021/05/12 00:31:00.001,n,258,4.32,3.96,5.04,21.1,81.1,1017.62,0.04,1,0,0,0.024376
2021/05/12 00:32:00.000,n,269,3.96,3.24,4.68,21.1,81,1017.62,0.05,0.3,0,0,0.02697
2021/05/12 00:33:00.000,n,267,5.04,4.32,5.4,21.1,81.1,1017.62,0.06,0.6,0,0,0.033035
2021/05/12 00:34:00.012,n,275,7.56,7.56,7.92,21.1,81,1017.62,0.06,0.4,0,0,0.02697
2021/05/12 00:35:00.009,n,276,5.4,4.68,5.76,21,81.4,1017.72,0.08,0.7,0,0,0.027847
2021/05/12 00:36:00.006,n,272,5.04,3.96,5.04,21,81.3,1017.72,0.09,0.9,0,0,0.020027
2021/05/12 00:37:00.000,n,246,4.68,3.96,5.4,21,81.5,1017.72,0.09,0,0,0,0.02346
2021/05/12 00:38:00.002,n,265,5.04,4.68,5.76,21.1,81.7,1017.72,0.1,0.6,0,0,0.017395
2021/05/12 00:39:00.000,n,257,6.84,6.12,7.2,21.1,81.5,1017.72,0.11,0.1,0,0,0.01915
2021/05/12 00:40:00.000,n,250,6.48,6.12,6.48,21,81.5,1017.72,0.11,0.5,0,0,0.016518
2021/05/12 00:41:00.000,n,205,3.6,3.24,4.68,21,81.8,1017.72,0.12,0.3,0,0,0.031319
2021/05/12 00:42:00.008,n,241,3.96,3.6,4.32,21,81.9,1017.72,0.12,0,0,0,0.030441
2021/05/12 00:43:00.005,n,181,1.8,1.08,2.52,21,82.2,1017.82,0.13,0.4,0,0,0.033035
2021/05/12 00:44:00.002,n,228,3.96,3.6,4.68,21,82.4,1017.92,0.13,0.1,0,0,0.032196
2021/05/12 00:45:00.017,n,259,5.4,5.4,6.12,21,82.2,1017.92,0.14,0.4,0,0,0.029602
2021/05/12 00:46:00.000,n,260,5.04,3.96,5.76,21,82,1018.02,0.16,1,0,0,0.030441
2021/05/12 00:47:00.000,n,277,6.12,5.76,7.2,21,82.3,1018.02,0.17,1,0,0,0.027847
2021/05/12 00:48:00.000,n,243,4.68,3.6,5.04,21,82.2,1018.02,0.18,0.6,0,0,0.029602
2021/05/12 00:49:00.000,n,288,12.96,11.52,14.04,20.9,82.4,1018.02,0.19,0.1,0,0,0.026093
2021/05/12 00:50:00.006,n,261,9.72,8.64,10.8,20.9,82.1,1017.92,0.19,0.1,0,0,0.028725
2021/05/12 00:51:00.003,n,257,6.12,5.4,7.2,20.9,82.7,1017.92,0.19,0,0,0,0.028725
2021/05/12 00:52:00.001,n,231,5.04,3.96,5.76,20.9,82.5,1017.92,0.19,0,0,0,0.029602
2021/05/12 00:53:00.000,n,277,9.72,7.2,11.88,20.9,82.3,1017.82,0.19,0,0,0,0.038261
2021/05/12 00:54:00.013,n,273,7.2,4.32,7.92,20.9,82.9,1017.92,0.2,0.3,0,0,0.020027
2021/05/12 00:55:00.000,n,250,9,7.2,10.8,20.9,82.1,1017.82,0.2,0.5,0,0,0.020027
2021/05/12 00:56:00.000,n,230,7.92,7.2,8.64,20.8,82.2,1017.92,0.22,0.5,0,0,0.021744
2021/05/12 00:57:00.006,n,295,7.2,5.76,9.36,20.8,82.9,1017.92,0.22,0.5,0,0,0.024376
2021/05/12 00:58:00.003,n,259,7.56,7.2,9,20.8,82.5,1017.92,0.24,1,0,0,0.020027
2021/05/12 00:59:00.000,n,126,2.52,1.8,3.6,20.7,82.7,1017.92,0.26,0.8,0,0,0.020866
2021/05/12 01:00:00.000,n,46,2.52,1.44,3.96,20.8,83.2,1017.92,0.26,0.1,0,0,0.020866
2021/05/12 01:01:00.013,n,100,1.08,0.36,2.88,20.8,83.6,1017.92,0.26,0,0,0,0.014801
2021/05/12 01:02:00.002,n,324,2.88,2.16,3.24,20.8,82.9,1018.02,0.26,0,0,0,0.021744
2021/05/12 01:03:00.007,n,313,4.68,3.96,5.76,20.7,82.4,1018.02,0.26,0.2,0,0,0.018272
2021/05/12 01:04:00.000,n,275,7.92,7.56,9.36,20.6,81.4,1018.02,0.28,0.9,0,0,0.018272
2021/05/12 01:05:00.000,n,260,2.88,2.88,3.6,20.4,81.3,1018.02,0.3,0.9,0,0,0.025253
2021/05/12 01:06:00.000,n,167,13.32,8.28,18.72,20.3,80.5,1017.92,0.31,1,0,0,0.020866
2021/05/12 01:07:00.000,n,212,14.04,12.6,16.2,20.2,80.6,1017.92,0.33,0.8,0,0,0.011292
2021/05/12 01:08:00.006,n,278,10.08,9,10.8,20.1,80.4,1017.92,0.35,1.4,0,0,0.022621
2021/05/12 01:09:00.000,n,284,11.16,8.64,12.96,20,80.8,1017.92,0.36,0.8,0,0,0.022621
2021/05/12 01:10:00.002,n,256,8.64,7.56,9.36,19.9,80.4,1017.92,0.38,1,0,0,0.016518
2021/05/12 01:11:00.008,n,253,6.12,2.88,10.08,19.9,80.2,1017.82,0.4,0.7,0,0,0.01915
2021/05/12 01:12:00.012,n,254,12.24,10.08,14.4,19.8,80.4,1017.72,0.41,1,0,0,0.020905
2021/05/12 01:13:00.000,n,243,3.24,2.16,5.4,19.8,80.9,1017.72,0.43,0.9,0,0,0.026131
2021/05/12 01:14:00.000,n,240,12.24,5.4,16.56,19.7,80.8,1017.72,0.46,1.3,0,0,0.026131
2021/05/12 01:15:00.000,n,266,14.04,12.24,15.84,19.7,80,1017.72,0.48,1.9,0,0,0.022659
2021/05/12 01:16:00.004,n,259,11.16,10.440002,11.88,19.6,80.4,1017.72,0.52,1.9,0,0,0.022659
2021/05/12 01:17:00.000,n,264,16.2,14.4,18.359998,19.6,80.4,1017.72,0.54,1.3,0,0,0.027885
2021/05/12 01:18:00.000,n,281,9.72,8.64,10.08,19.5,81.2,1017.72,0.56,1.3,0,0,0.033073
2021/05/12 01:19:00.005,n,330,5.04,2.52,6.48,19.5,81.7,1017.72,0.59,1.7,0,0,0.032234
2021/05/12 01:20:00.011,n,276,8.64,6.48,9.72,19.5,80.6,1017.82,0.61,1.2,0,0,0.028725
2021/05/12 01:21:00.001,n,286,13.68,12.96,15.48,19.4,80.7,1017.82,0.66,1.5,0,0,0.032234
2021/05/12 01:22:00.000,n,291,6.84,1.08,11.16,19.4,81.3,1017.82,0.7,3.8,0,0,0.026131
2021/05/12 01:23:00.000,n,259,21.24,18,23.4,19.3,79.7,1017.82,0.74,2,0,0,0.027885
2021/05/12 01:24:00.003,n,211,10.08,7.92,11.52,19.3,80.6,1017.72,0.78,1.9,0,0,0.024376
2021/05/12 01:25:00.000,n,269,14.04,8.28,21.96,19.2,80.1,1017.72,0.83,3.7,0,0,0.024376
2021/05/12 01:26:00.000,n,266,3.96,2.52,4.68,19.1,81.2,1017.62,0.88,2.3,0,0,0.023499
2021/05/12 01:27:00.004,n,257,10.440002,9,11.52,19,81.2,1017.62,0.94,4.5,0,0,0.032234
2021/05/12 01:28:00.010,n,311,4.68,1.08,7.2,19,81.3,1017.62,1.02,4.8,0,0,0.028725
2021/05/12 01:29:00.000,n,331,1.08,0.36,2.16,18.9,81.5,1017.52,1.07,2.6,0,0,0.028725
2021/05/12 01:30:00.005,n,247,7.56,2.16,11.88,18.9,81.5,1017.52,1.1,1.8,0,0,0.022659
2021/05/12 01:31:00.000,n,220,1.44,1.08,1.44,18.9,82.4,1017.42,1.27,9.2,0,0,0.027008
2021/05/12 01:32:00.001,n,297,2.16,1.8,2.88,18.9,82.6,1017.42,1.39,7.9,0,0,0.026093
2021/05/12 01:33:00.000,n,284,6.84,4.68,9.36,18.9,82.7,1017.42,1.72,18.7,0,0,0.022659
2021/05/12 01:34:00.005,n,141,1.08,0.36,2.88,18.8,82.9,1017.32,1.83,8,0,0,0.020027
2021/05/12 01:35:00.000,n,251,3.6,2.52,5.04,18.8,82.7,1017.42,1.95,6.7,0,0,0.020027
2021/05/12 01:36:00.002,n,253,4.68,4.32,5.04,18.8,83.1,1017.52,2.06,6.7,0,0,0.021782
2021/05/12 01:37:00.009,n,277,4.68,2.88,6.48,18.8,83,1017.52,2.15,5.7,0,0,0.020905
2021/05/12 01:38:00.015,n,247,9.72,6.84,11.52,18.8,83,1017.52,2.39,14.5,0,0,0.016518
2021/05/12 01:39:00.013,n,268,9,8.64,9.36,18.7,82.9,1017.62,2.54,12.2,0,0,0.016518
2021/05/12 01:40:00.000,n,277,7.92,6.12,9,18.7,83.3,1017.62,2.7,9.2,0,0,0.028725
2021/05/12 01:41:00.001,n,266,6.84,6.12,8.28,18.7,83.2,1017.62,2.75,3.7,0,0,0.032234
2021/05/12 01:42:00.000,n,260,13.68,12.6,14.76,18.6,83,1017.62,2.8,2.9,0,0,0.032234
2021/05/12 01:43:00.000,n,260,10.8,8.64,11.52,18.6,83.2,1017.62,2.89,3.4,0,0,0.030441
2021/05/12 01:44:00.005,n,241,7.56,5.4,8.64,18.6,83.4,1017.52,3.1,13.2,0,0,0.026093
2021/05/12 01:45:00.003,n,249,6.48,5.4,7.92,18.5,83.6,1017.52,3.33,14.2,0,0,0.024376
2021/05/12 01:46:00.001,n,289,6.48,5.4,8.28,18.5,83.9,1017.42,3.57,14.6,0,0,0.025253
2021/05/12 01:47:00.000,n,275,6.84,5.04,9,18.5,84.2,1017.42,3.63,4.8,0,0,0.022659
2021/05/12 01:48:00.005,n,235,4.32,2.52,6.12,18.5,84.1,1017.42,3.7,3.6,0,0,0.027008
2021/05/12 01:49:00.000,n,296,11.16,8.28,13.68,18.5,84.1,1017.52,3.75,3.3,0,0,0.033951
2021/05/12 01:50:00.000,n,282,9.36,7.56,11.16,18.5,84,1017.62,3.86,5.9,0,0,0.030479
2021/05/12 01:51:00.003,n,262,15.48,11.16,17.64,18.5,83.9,1017.72,3.99,7.7,0,0,0.031319
2021/05/12 01:52:00.000,n,263,14.4,9.72,16.56,18.4,83.1,1017.72,4.21,13.2,0,0,0.021744
2021/05/12 01:53:00.008,n,277,7.2,6.12,8.64,18.4,84.2,1017.62,4.33,7.7,0,0,0.024376
2021/05/12 01:54:00.000,n,280,15.12,13.32,16.56,18.4,84.3,1017.52,4.49,8.9,0,0,0.023537
2021/05/12 01:55:00.005,n,289,6.48,5.04,7.92,18.4,84.4,1017.42,4.75,16.1,0,0,0.020905
2021/05/12 01:56:00.004,n,280,14.76,10.8,18.72,18.4,84.3,1017.42,4.84,5.7,0,0,0.021744
2021/05/12 01:57:00.010,n,266,7.92,5.04,10.440002,18.3,84.8,1017.52,4.86,1.1,0,0,0.023537
2021/05/12 01:58:00.000,n,265,6.48,4.68,7.2,18.3,84.7,1017.42,4.89,1.9,0,0,0.024376
2021/05/12 01:59:00.000,n,273,10.440002,7.2,12.24,18.3,85.2,1017.42,5.01,3.4,0,0,0.021744
2021/05/12 02:00:00.000,n,241,12.6,10.8,14.04,18.3,84.7,1017.42,5.43,24.7,0,0,0.025215
2021/05/12 02:01:00.000,n,268,8.28,3.96,14.04,18.3,84.7,1017.42,5.65,15.9,0,0,0.028725
2021/05/12 02:02:00.008,n,116,3.6,1.08,4.68,18.2,85.1,1017.42,5.83,12.2,0,0,0.027847
2021/05/12 02:03:00.006,n,57,1.08,0.72,1.8,18.2,85.6,1017.52,5.89,4.1,0,0,0.027847
2021/05/12 02:04:00.012,n,104,1.08,0.72,1.44,18.2,85.7,1017.52,5.93,2.4,0,0,0.027847
2021/05/12 02:05:00.002,n,271,2.88,1.08,5.4,18.3,86.2,1017.52,5.94,0.9,0,0,0.026093
2021/05/12 02:06:00.008,n,308,1.08,0.36,1.8,18.3,85.6,1017.52,5.95,0.9,0,0,0.025215
2021/05/12 02:07:00.000,n,16,1.08,1.08,1.8,18.3,85.1,1017.42,5.99,1.5,0,0,0.022621
2021/05/12 02:08:00.000,n,346,2.52,2.16,3.96,18.2,85.4,1017.52,6,1,0,0,0.022621
2021/05/12 02:09:00.000,n,106,1.44,0.72,2.16,18.2,85.7,1017.52,6.01,0.7,0,0,0.022621
2021/05/12 02:10:00.002,n,1,2.52,0.72,3.6,18.3,85.9,1017.62,6.02,0.4,0,0,0.01915
2021/05/12 02:11:00.008,n,290,6.48,5.4,7.92,18.3,85.5,1017.72,6.02,0.1,0,0,0.025253
2021/05/12 02:12:00.000,n,270,7.92,6.12,9,18.3,85.6,1017.72,6.03,0.7,0,0,0.028725
2021/05/12 02:13:00.004,n,273,4.68,3.6,4.68,18.3,86,1017.72,6.04,0.2,0,0,0.027847
2021/05/12 02:14:00.010,n,306,1.8,1.08,2.88,18.4,86.1,1017.82,6.05,0.7,0,0,0.030479
2021/05/12 02:15:00.000,n,270,4.68,3.96,5.76,18.4,85.7,1017.82,6.07,1.1,0,0,0.026131
2021/05/12 02:16:00.000,n,256,8.64,7.56,9.36,18.3,85.2,1017.82,6.07,0.2,0,0,0.025253
2021/05/12 02:17:00.000,n,272,7.56,6.48,8.28,18.3,84.8,1017.82,6.08,0.1,0,0,0.02697
2021/05/12 02:18:00.003,n,258,5.76,5.4,6.12,18.2,84.9,1017.72,6.08,0.2,0,0,0.027847
2021/05/12 02:19:00.000,n,264,9.72,9.72,10.08,18.2,84.9,1017.72,6.08,0.1,0,0,0.024376
2021/05/12 02:20:00.000,n,271,4.68,2.88,6.84,18.2,85.2,1017.62,6.08,0.1,0,0,0.02697
2021/05/12 02:21:00.004,n,290,7.92,7.92,8.28,18.2,85.2,1017.62,6.09,0.1,0,0,0.020905
2021/05/12 02:22:00.011,n,241,3.96,2.16,4.68,18.2,85.4,1017.62,6.09,0,0,0,0.022621
2021/05/12 02:23:00.000,n,252,4.68,3.96,5.76,18.2,85.4,1017.72,6.09,0,0,0,0.021744
2021/05/12 02:24:00.006,n,283,5.4,2.88,7.56,18.2,85.4,1017.62,6.09,0,0,0,0.021744
2021/05/12 02:25:00.000,n,291,4.32,2.88,5.04,18.2,85.7,1017.62,6.09,0,0,0,0.026131
2021/05/12 02:26:00.001,n,278,2.52,1.44,2.88,18.3,85.9,1017.62,6.09,0,0,0,0.023499
2021/05/12 02:27:00.000,n,277,4.68,3.96,5.4,18.4,86,1017.62,6.09,0,0,0,0.021744
2021/05/12 02:28:00.000,n,280,5.4,3.96,7.2,18.4,86,1017.62,6.09,0.1,0,0,0.021744
2021/05/12 02:29:00.004,n,224,4.68,4.32,5.04,18.4,85.5,1017.52,6.09,0.3,0,0,0.020027
2021/05/12 02:30:00.010,n,122,3.96,3.24,4.32,18.4,85.3,1017.42,6.1,0.2,0,0,0.026131
2021/05/12 02:31:00.000,n,137,5.76,5.4,6.12,18.4,85.4,1017.32,6.11,0.8,0,0,0.032196
2021/05/12 02:32:00.006,n,149,7.56,7.2,8.28,18.3,85.2,1017.22,6.14,1.6,0,0,0.028725
2021/05/12 02:33:00.012,n,183,3.24,2.52,4.68,18.3,85.2,1017.22,6.16,0.9,0,0,0.032196
2021/05/12 02:34:00.000,n,96,3.6,2.16,6.12,18.3,85.4,1017.22,6.17,0.5,0,0,0.026131
2021/05/12 02:35:00.000,n,114,7.2,6.84,7.56,18.4,85.4,1017.22,6.18,0.4,0,0,0.029602
2021/05/12 02:36:00.000,n,165,4.68,3.24,5.76,18.4,85.5,1017.22,6.19,0.6,0,0,0.02697
2021/05/12 02:37:00.004,n,154,8.28,7.2,9.36,18.3,85.4,1017.22,6.2,0.8,0,0,0.028725
2021/05/12 02:38:00.000,n,139,5.04,1.8,6.48,18.3,85.6,1017.22,6.21,0.7,0,0,0.029602
2021/05/12 02:39:00.000,n,136,7.92,7.2,9,18.3,85.5,1017.22,6.21,0.1,0,0,0.026131
2021/05/12 02:40:00.005,n,134,7.92,6.48,9.36,18.3,85.5,1017.22,6.22,0.2,0,0,0.026131
2021/05/12 02:41:00.012,n,135,9.36,8.64,10.08,18.3,85.6,1017.12,6.22,0,0,0,0.023499
2021/05/12 02:42:00.001,n,110,7.56,6.12,9,18.3,85.8,1017.12,6.22,0,0,0,0.024338
2021/05/12 02:43:00.000,n,104,8.28,7.56,9.36,18.3,85.9,1017.12,6.22,0.1,0,0,0.027847
2021/05/12 02:44:00.000,n,158,5.76,5.04,6.12,18.3,86,1017.12,6.22,0,0,0,0.026131
2021/05/12 02:45:00.003,n,201,1.44,0.36,2.16,18.3,86.1,1017.22,6.22,0,0,0,0.02697
2021/05/12 02:46:00.000,n,92,1.44,0.72,1.8,18.3,86.1,1017.32,6.23,0.4,0,0,0.026131
2021/05/12 02:47:00.000,n,216,1.08,0.72,1.8,18.3,86.2,1017.32,6.23,0,0,0,0.027847
2021/05/12 02:48:00.004,n,205,0.72,0.72,1.08,18.3,86.3,1017.32,6.23,0,0,0,0.028725
2021/05/12 02:49:00.011,n,117,5.4,4.68,5.76,18.4,86.3,1017.32,6.23,0,0,0,0.025253
2021/05/12 02:50:00.000,n,112,6.84,6.12,7.2,18.3,86.1,1017.32,6.23,0,0,0,0.025253
2021/05/12 02:51:00.006,n,171,1.44,0.36,2.52,18.4,86.4,1017.32,6.23,0,0,0,0.025253
2021/05/12 02:52:00.000,n,57,2.52,1.08,5.04,18.4,86.4,1017.32,6.26,1.7,0,0,0.026131
2021/05/12 02:53:00.002,n,97,2.16,0.72,2.88,18.4,86.4,1017.32,6.26,0,0,0,0.032196
2021/05/12 02:54:00.000,n,144,1.44,1.08,1.8,18.4,86.5,1017.32,6.26,0,0,0,0.02697
2021/05/12 02:55:00.000,n,71,0.36,0,0.72,18.4,86.5,1017.42,6.26,0,0,0,0.026131
2021/05/12 02:56:00.004,n,133,1.8,1.08,2.16,18.4,86.5,1017.42,6.26,0,0,0,0.027847
2021/05/12 02:57:00.010,n,97,1.44,1.44,1.8,18.4,86.2,1017.32,6.26,0,0,0,0.025253
2021/05/12 02:58:00.000,n,156,2.16,2.16,2.52,18.4,86.3,1017.32,6.26,0,0,0,0.024338
2021/05/12 02:59:00.007,n,209,1.8,1.44,2.16,18.4,86.4,1017.32,6.26,0,0,0,0.025253
2021/05/12 03:00:00.013,n,209,3.24,3.24,3.24,18.4,86.4,1017.32,6.26,0,0,0,0.027847
2021/05/12 03:01:00.000,n,152,2.88,2.52,3.24,18.4,86.2,1017.32,6.26,0,0,0,0.023499
2021/05/12 03:02:00.000,n,153,3.24,2.52,3.6,18.4,86.1,1017.22,6.26,0,0,0,0.022621
2021/05/12 03:03:00.000,n,173,3.96,2.88,5.4,18.4,86.1,1017.22,6.26,0,0,0,0.02697
2021/05/12 03:04:00.006,n,227,3.6,3.24,4.68,18.3,86.2,1017.22,6.26,0,0,0,0.023499
2021/05/12 03:05:00.000,n,211,5.4,2.88,6.84,18.4,86.4,1017.22,6.26,0,0,0,0.030479
2021/05/12 03:06:00.001,n,205,3.6,2.52,4.32,18.4,86.4,1017.22,6.26,0,0,0,0.026131
2021/05/12 03:07:00.007,n,188,5.4,5.04,5.76,18.4,86.5,1017.32,6.26,0,0,0,0.02697
2021/05/12 03:08:00.013,n,184,6.12,4.68,7.2,18.4,86.4,1017.32,6.26,0,0,0,0.026131
2021/05/12 03:09:00.002,n,229,3.96,3.6,3.96,18.4,86.4,1017.32,6.26,0,0,0,0.023499
2021/05/12 03:10:00.000,n,214,3.96,2.88,4.68,18.4,86.4,1017.32,6.26,0,0,0,0.026131
2021/05/12 03:11:00.000,n,185,6.48,4.68,8.64,18.4,86.3,1017.32,6.26,0,0,0,0.027847
2021/05/12 03:12:00.000,n,183,4.32,2.52,5.4,18.4,86.2,1017.32,6.26,0,0,0,0.027847
2021/05/12 03:13:00.000,n,159,6.48,5.76,6.84,18.3,86.1,1017.32,6.26,0,0,0,0.02697
2021/05/12 03:14:00.001,n,178,3.96,2.88,5.04,18.3,86,1017.32,6.26,0,0,0,0.02697
2021/05/12 03:15:00.007,n,173,5.76,5.04,6.84,18.3,86.1,1017.32,6.26,0,0,0,0.027847
2021/05/12 03:16:00.000,n,149,5.04,2.52,6.12,18.3,86.2,1017.32,6.26,0,0,0,0.025253
2021/05/12 03:17:00.003,n,177,4.32,3.24,4.32,18.3,86.2,1017.32,6.26,0,0,0,0.02697
2021/05/12 03:18:00.009,n,154,5.76,2.88,6.12,18.3,86.3,1017.32,6.26,0,0,0,0.029602
2021/05/12 03:19:00.000,n,148,4.68,3.6,5.76,18.3,86.4,1017.32,6.26,0,0,0,0.02697
2021/05/12 03:20:00.000,n,131,1.8,1.08,2.52,18.3,86.4,1017.32,6.26,0,0,0,0.024338
2021/05/12 03:21:00.000,n,147,2.52,2.16,2.88,18.4,86.5,1017.32,6.26,0,0,0,0.029602
2021/05/12 03:22:00.000,n,283,1.08,0.72,1.44,18.4,86.6,1017.32,6.26,0,0,0,0.027847
2021/05/12 03:23:00.005,n,213,5.04,4.68,5.4,18.4,86.3,1017.32,6.26,0,0,0,0.026131
2021/05/12 03:24:00.010,n,254,2.88,2.16,3.6,18.4,86.3,1017.32,6.26,0,0,0,0.025253
2021/05/12 03:25:00.000,n,234,2.88,1.8,4.32,18.3,86.2,1017.32,6.26,0,0,0,0.027847
2021/05/12 03:26:00.005,n,267,2.88,2.88,3.24,18.3,86.3,1017.32,6.26,0,0,0,0.027847
2021/05/12 03:27:00.011,n,273,5.76,4.68,7.56,18.4,86.3,1017.32,6.26,0,0,0,0.027847
2021/05/12 03:28:00.000,n,268,3.96,3.96,4.68,18.4,86.4,1017.32,6.26,0,0,0,0.026131
2021/05/12 03:29:00.000,n,306,2.88,1.8,3.96,18.4,86.7,1017.32,6.26,0,0,0,0.028725
2021/05/12 03:30:00.000,n,284,3.6,2.52,4.32,18.5,86.9,1017.32,6.26,0,0,0,0.02697
2021/05/12 03:31:00.000,n,270,5.4,4.68,5.76,18.5,86.6,1017.32,6.26,0,0,0,0.030479
2021/05/12 03:32:00.006,n,162,1.8,0.72,2.88,18.5,86.5,1017.22,6.26,0,0,0,0.031319
2021/05/12 03:33:00.000,n,243,3.6,3.24,3.6,18.5,86.4,1017.22,6.26,0,0,0,0.029602
2021/05/12 03:34:00.001,n,281,1.44,0.72,2.52,18.5,86.4,1017.22,6.26,0,0,0,0.030479
2021/05/12 03:35:00.006,n,263,3.6,2.88,3.96,18.5,86.2,1017.22,6.26,0,0,0,0.02697
2021/05/12 03:36:00.012,n,184,1.44,1.08,1.8,18.5,86.2,1017.22,6.26,0,0,0,0.031319
2021/05/12 03:37:00.000,n,286,1.08,0.36,1.44,18.4,86.3,1017.22,6.26,0,0,0,0.027847
2021/05/12 03:38:00.000,n,298,1.08,0.72,1.44,18.4,86.2,1017.32,6.26,0,0,0,0.028725
2021/05/12 03:39:00.000,n,273,0.72,0.36,1.8,18.4,86.4,1017.32,6.26,0,0,0,0.027847
2021/05/12 03:40:00.005,n,315,0.72,0.36,2.16,18.5,86.7,1017.42,6.26,0,0,0,0.029602
2021/05/12 03:41:00.000,n,347,0.72,0.36,1.8,18.5,86.8,1017.42,6.26,0,0,0,0.030479
2021/05/12 03:42:00.000,n,43,2.16,1.08,3.24,18.6,86.9,1017.42,6.26,0,0,0,0.030479
2021/05/12 03:43:00.006,n,46,2.88,2.52,3.24,18.6,86.5,1017.32,6.26,0,0,0,0.029602
2021/05/12 03:44:00.012,n,113,2.16,2.16,2.52,18.6,86.5,1017.32,6.26,0,0,0,0.030479
2021/05/12 03:45:00.001,n,161,2.52,2.16,2.52,18.6,86,1017.32,6.26,0,0,0,0.031319
2021/05/12 03:46:00.000,n,185,5.04,3.6,5.76,18.5,85.7,1017.32,6.26,0,0,0,0.030479
2021/05/12 03:47:00.000,n,177,8.64,7.56,10.440002,18.4,85.4,1017.32,6.26,0,0,0,0.032196
2021/05/12 03:48:00.001,n,165,7.92,6.84,8.64,18.4,85.6,1017.32,6.26,0,0,0,0.030479
2021/05/12 03:49:00.000,n,157,5.4,4.32,7.2,18.3,85.8,1017.32,6.26,0,0,0,0.030479
2021/05/12 03:50:00.000,n,146,6.48,6.12,6.84,18.4,85.8,1017.32,6.26,0,0,0,0.032196
2021/05/12 03:51:00.003,n,168,3.24,2.52,3.96,18.3,85.7,1017.32,6.26,0,0,0,0.032196
2021/05/12 03:52:00.009,n,212,2.52,1.8,3.6,18.3,85.8,1017.42,6.26,0,0,0,0.033073
2021/05/12 03:53:00.014,n,201,1.8,1.08,2.16,18.3,85.8,1017.42,6.26,0,0,0,0.031319
2021/05/12 03:54:00.005,n,191,1.08,0.36,1.44,18.4,85.9,1017.52,6.26,0,0,0,0.024338
2021/05/12 03:55:00.000,n,230,0.36,0,0.36,18.4,86,1017.52,6.26,0,0,0,0.029602
2021/05/12 03:56:00.000,n,160,0.72,0.36,1.08,18.4,86.1,1017.62,6.26,0,0,0,0.026131
2021/05/12 03:57:00.000,n,227,2.16,1.44,2.88,18.4,86.2,1017.62,6.26,0,0,0,0.030479
2021/05/12 03:58:00.000,n,277,3.96,3.6,4.68,18.4,86.1,1017.62,6.26,0,0,0,0.032196
2021/05/12 03:59:00.001,n,279,4.32,3.96,5.04,18.5,86.3,1017.62,6.26,0,0,0,0.033073
2021/05/12 04:00:00.007,n,269,3.96,3.6,3.96,18.5,86.5,1017.62,6.26,0,0,0,0.033073
2021/05/12 04:01:00.012,n,261,4.32,3.96,4.32,18.5,86.1,1017.62,6.26,0,0,0,0.033913
2021/05/12 04:02:00.002,n,232,3.6,2.88,3.96,18.5,85.9,1017.62,6.26,0,0,0,0.036545
2021/05/12 04:03:00.007,n,265,3.24,2.88,4.32,18.5,85.9,1017.62,6.26,0,0,0,0.031319
2021/05/12 04:04:00.000,n,172,2.88,2.16,3.6,18.5,86,1017.52,6.26,0,0,0,0.030479
2021/05/12 04:05:00.002,n,196,4.68,3.6,5.04,18.5,86,1017.52,6.26,0,0,0,0.032196
2021/05/12 04:06:00.000,n,169,6.12,5.04,6.48,18.5,86,1017.62,6.26,0,0,0,0.033913
2021/05/12 04:07:00.000,n,308,2.16,2.16,2.88,18.5,86.1,1017.72,6.26,0,0,0,0.033073
2021/05/12 04:08:00.002,n,291,1.8,0.72,2.88,18.5,86.3,1017.72,6.26,0,0,0,0.033073
2021/05/12 04:09:00.009,n,282,7.2,4.68,7.92,18.5,86.2,1017.72,6.26,0,0,0,0.034828
2021/05/12 04:10:00.000,n,276,3.96,2.16,4.32,18.5,86.1,1017.82,6.26,0,0,0,0.033913
2021/05/12 04:11:00.002,n,258,8.28,6.48,9.72,18.5,86.3,1017.82,6.26,0,0,0,0.030479
2021/05/12 04:12:00.008,n,281,5.4,5.4,5.76,18.5,85.9,1017.92,6.26,0,0,0,0.032196
2021/05/12 04:13:00.000,n,249,5.4,4.68,6.12,18.5,86.2,1017.92,6.26,0,0,0,0.036545
2021/05/12 04:14:00.003,n,284,3.96,2.88,5.4,18.5,86.6,1017.82,6.26,0,0,0,0.033073
2021/05/12 04:15:00.000,n,262,3.6,2.52,3.96,18.5,86.3,1017.82,6.26,0,0,0,0.033073
2021/05/12 04:16:00.000,n,218,2.16,1.8,2.16,18.5,86.1,1017.82,6.26,0,0,0,0.034828
2021/05/12 04:17:00.004,n,264,2.88,2.16,3.24,18.5,86,1017.82,6.26,0,0,0,0.033073
2021/05/12 04:18:00.010,n,224,2.88,2.16,3.24,18.5,86,1017.82,6.26,0,0,0,0.031319
2021/05/12 04:19:00.000,n,337,0.72,0.36,1.08,18.5,86.1,1017.82,6.26,0,0,0,0.033913
2021/05/12 04:20:00.004,n,167,2.52,2.52,3.24,18.5,86.3,1017.82,6.26,0,0,0,0.036545
2021/05/12 04:21:00.010,n,282,3.6,3.6,3.96,18.5,86.1,1017.82,6.26,0,0,0,0.034828
2021/05/12 04:22:00.000,n,280,2.52,2.16,3.24,18.5,86.1,1017.82,6.26,0,0,0,0.0383
2021/05/12 04:23:00.000,n,280,1.08,1.08,1.44,18.5,86.3,1017.92,6.26,0,0,0,0.0383
2021/05/12 04:24:00.000,n,270,3.6,3.24,4.68,18.5,86.2,1017.92,6.26,0,0,0,0.040054
2021/05/12 04:25:00.000,n,342,1.8,0.72,2.52,18.5,86.3,1017.92,6.26,0,0,0,0.034828
2021/05/12 04:26:00.006,n,285,4.68,3.24,5.4,18.5,86.2,1017.92,6.26,0,0,0,0.035706
2021/05/12 04:27:00.000,n,274,5.4,5.4,5.76,18.5,85.9,1018.02,6.26,0,0,0,0.0383
2021/05/12 04:28:00.001,n,241,9.36,8.64,10.08,18.4,85.7,1018.02,6.26,0,0,0,0.036545
2021/05/12 04:29:00.006,n,276,5.4,4.32,7.2,18.4,85.8,1018.02,6.26,0,0,0,0.040054
2021/05/12 04:30:00.012,n,239,3.96,3.24,5.04,18.4,85.7,1018.02,6.26,0,0,0,0.037422
2021/05/12 04:31:00.001,n,287,8.64,7.2,9.36,18.3,85.7,1018.02,6.26,0,0,0,0.034828
2021/05/12 04:32:00.000,n,260,5.04,4.32,5.76,18.3,85.8,1018.02,6.26,0,0,0,0.036545
2021/05/12 04:33:00.000,n,285,7.2,6.48,8.28,18.3,85.8,1018.02,6.26,0,0,0,0.033073
2021/05/12 04:34:00.002,n,266,8.64,7.56,9.36,18.3,85.9,1017.92,6.26,0,0,0,0.040894
2021/05/12 04:35:00.007,n,254,7.92,6.48,9,18.3,85.9,1017.92,6.26,0,0,0,0.037422
2021/05/12 04:36:00.000,n,251,5.04,3.24,6.48,18.3,85.9,1017.92,6.26,0,0,0,0.036545
2021/05/12 04:37:00.004,n,259,9.36,7.2,10.8,18.3,85.8,1017.82,6.26,0,0,0,0.036545
2021/05/12 04:38:00.010,n,274,6.48,5.76,6.84,18.3,85.8,1017.72,6.26,0,0,0,0.033073
2021/05/12 04:39:00.015,n,254,6.84,6.12,8.28,18.3,85.8,1017.72,6.26,0,0,0,0.036545
2021/05/12 04:40:00.000,n,287,3.24,2.52,3.96,18.3,86,1017.82,6.26,0,0,0,0.034828
2021/05/12 04:41:00.000,n,255,9.36,6.48,10.440002,18.3,86,1017.82,6.26,0,0,0,0.035706